[[{"header":{"parameterUnit":"m.s-1","parameterCategory":2,"la1":30.2991,"la2":30.254,"lo1":-89.0895,"lo2":-89.0444,"dy":0.0017,"dx":0.0017,"nx":28,"ny":28,"refTime":"2025-07-09T03:00:00:Z","depth":"0","parameterNumber":2,"parameterNumberName":"U-component_of_CURRENTS"},"data":[0,0,0,0,0,0,0,0,0,0,0,0,0,0,0,0,0,0,0,0,0,0,0,0,0,0,0,0,0,0,0,0,0,0,0,0,0,0,0,0,0,0,0,0,0,0,0,0,0,0,0,0,0,0,0,0,0,0,0.1869,0.1869,0,0.1878,0.1878,0.1878,0.1875,0.1875,0.1874,0.1874,0.1875,0.1875,0.1876,0,0,0,0,0,0,0,0,0,0,0,0,0,0.1871,0.1871,0.1869,0.1869,0.187,0.1878,0.1878,0.1878,0.1875,0.1875,0.1874,0.1874,0.1875,0.1875,0.1876,0,0,0,0,0,0,0,0,0,0,0,0,0,0.1873,0.1871,0.1869,0.187,0.187,0.1878,0.1878,0.1878,0.1875,0.1875,0.1874,0.1874,0.1875,0.1875,0.1876,0.188,0,0,0.1876,0.1876,0,0,0,0,0,0,0,0,0.1873,0.1873,0.1869,0.187,0.187,0.1876,0.1879,0.1878,0.1875,0.1872,0.1874,0.1874,0.1875,0.1876,0.1876,0.188,0.188,0.1876,0.1876,0.1876,0.1876,0,0,0,0,0,0,0,0.1873,0.1873,0.1872,0.187,0.187,0.1877,0.1876,0.1879,0.1874,0.1872,0.1872,0.1875,0.1875,0.1876,0.1876,0.188,0.1876,0.1876,0.1877,0.1877,0.1911,0.1911,0,0,0,0,0,0,0.1872,0.1872,0.1871,0.1872,0.1872,0.1877,0.1876,0.1873,0.1874,0.1874,0.1875,0.1874,0.1876,0.1876,0.1876,0.1894,0.1876,0.1877,0.1877,0.191,0.1911,0.1912,0,0,0,0,0,0,0.1872,0.1872,0.1871,0.1873,0.1874,0.1877,0.1873,0.1874,0.1874,0.1876,0.1876,0.1874,0.1876,0.1876,0.1883,0.1893,0.1877,0.1877,0.1909,0.191,0.1911,0.1921,0,0,0,0,0,0,0.1872,0.1872,0.187,0.1873,0.1874,0.1876,0.1874,0.1874,0.1876,0.1875,0.1876,0.1876,0.1876,0.1883,0.1883,0.1893,0.1877,0.1908,0.191,0.1911,0.1919,0.1922,0.1924,0,0,0,0,0,0.1872,0.1872,0.187,0.187,0.1871,0.1877,0.1878,0.1879,0.1876,0.1877,0.1881,0.1876,0.1893,0.1883,0.1884,0.1894,0.1907,0.1909,0.1911,0.1918,0.1921,0.1924,0,0,0,0,0,0,0.1871,0.1872,0.1869,0.1869,0.1872,0.1876,0.1879,0.1879,0.1882,0.1882,0.1881,0.1882,0.1896,0.1894,0.1884,0.191,0.1901,0.1903,0.1907,0.191,0.1912,0.1896,0.1877,0,0,0,0,0,0.187,0.1869,0.1872,0.1871,0.1873,0.1875,0.1878,0.1879,0.1883,0.1884,0.1883,0.1889,0.1905,0.1905,0.1916,0.1922,0.1926,0.1932,0.1934,0.1936,0.1925,0.1962,0.1967,0.1918,0.1918,0.1918,0,0,0.1869,0.1869,0.1868,0.1871,0.1873,0.1874,0.1876,0.1881,0.1881,0.1884,0.1883,0.1899,0.1911,0.1925,0.1931,0.1922,0.1951,0.1939,0.194,0.1927,0.1965,0.197,0.1974,0.1919,0.1919,0.1918,0,0,0.1867,0.1867,0.1866,0.187,0.1875,0.1876,0.1877,0.1881,0.1882,0.1888,0.1898,0.1915,0.1924,0.1937,0.1946,0.1967,0.1968,0.1975,0.1967,0.2004,0.2008,0.2012,0.2014,0.2017,0.197,0.197,0.197,0,0.1865,0.1862,0.1867,0.1869,0.1871,0.1875,0.1875,0.1879,0.1884,0.189,0.1889,0.1923,0.193,0.1956,0.1963,0.1971,0.1982,0.1953,0.2006,0.201,0.2014,0.2015,0.2019,0.1971,0.1971,0.1971,0.1971,0,0.1863,0.1862,0.1863,0.1863,0.1867,0.1869,0.1875,0.188,0.1883,0.189,0.1915,0.1932,0.195,0.1963,0.1965,0.1998,0.1993,0.2011,0.1996,0.2019,0.2019,0.2023,0.1972,0.1972,0.1972,0.1971,0,0,0.1849,0.1859,0.1858,0.1856,0.1863,0.1865,0.1872,0.1881,0.1889,0.1902,0.1917,0.1944,0.1955,0.1965,0.198,0.2002,0.2034,0.201,0.2012,0.2006,0.2094,0.1991,0.1986,0.2068,0.2069,0.207,0.208,0,0.1842,0.1843,0.185,0.1847,0.1846,0.1858,0.1864,0.1876,0.1889,0.1907,0.1934,0.1957,0.1956,0.1972,0.1995,0.2032,0.2047,0.2027,0.2077,0.2078,0.1979,0.1988,0.1872,0.1863,0.2084,0.2084,0.2085,0,0.183,0.1833,0.1832,0.1838,0.1839,0.184,0.1854,0.1862,0.1894,0.1908,0.1937,0.1959,0.199,0.1994,0.2046,0.2036,0.2058,0.2079,0.2081,0.1981,0.1982,0.1878,0.1862,0.1799,0.2091,0.2091,0.209,0,0.1809,0.1815,0.1813,0.1815,0.1827,0.1832,0.1839,0.1863,0.1876,0.1913,0.1934,0.1971,0.1995,0.2036,0.206,0.2066,0.2112,0.2135,0.2057,0.205,0.1954,0.1935,0.1873,0.2172,0.2172,0.2172,0.2171,0,0.1792,0.1788,0.1804,0.1802,0.1802,0.1817,0.1825,0.1842,0.1875,0.1894,0.1932,0.1955,0.2011,0.2039,0.2066,0.2052,0.2119,0.2042,0.2046,0.1951,0.1933,0.1876,0.1861,0.2172,0.2172,0.2172,0.2172,0,0.1765,0.1775,0.1774,0.1788,0.1791,0.1792,0.1814,0.1824,0.1858,0.1887,0.1902,0.1951,0.1976,0.2008,0.2065,0.2043,0.1978,0.2041,0.1899,0.1884,0.1724,0.1714,0.1577,0.1548,0.195,0.1947,0.1945,0,0.1748,0.1747,0.176,0.1761,0.1766,0.1772,0.1779,0.181,0.1826,0.1879,0.1894,0.1925,0.193,0.1943,0.191,0.1902,0.1887,0.1789,0.1772,0.1676,0.1671,0.1614,0.1598,0.1656,0.1652,0.1649,0.1646,0,0.172,0.173,0.1734,0.1734,0.1738,0.1742,0.1756,0.1766,0.1806,0.1823,0.1845,0.1854,0.1836,0.1751,0.1712,0.1707,0.1658,0.1713,0.1673,0.1464,0.1342,0.1329,0.1675,0.1615,0.1618,0.162,0.1622,0.1623,0.17,0.1699,0.1706,0.1699,0.1704,0.1701,0.1683,0.1703,0.1706,0.1699,0.1758,0.1707,0.1635,0.1547,0.1521,0.1365,0.1426,0.1315,0.1321,0.1279,0.1203,0.1444,0.1352,0.1353,0.1355,0.1356,0.1357,0,0.1665,0.1667,0.1667,0.1653,0.1633,0.1652,0.1653,0.1617,0.1585,0.1581,0.1566,0.144,0.1319,0.1253,0.1082,0.0993,0.0976,0.0961,0.0883,0.0903,0.1166,0.1105,0.0882,0.0882,0.0882,0.0882,0.0883,0.0883,0.1648,0.1632,0.1628,0.1578,0.1566,0.1512,0.1496,0.1453,0.1423,0.1303,0.12,0.117,0.1078,0.0881,0.0728,0.0715,0.068,0.0578,0.0652,0.0857,0.0892,0.0925,0.0865,0.0595,0.0595,0.0337,0.0335,0.0333]},{"header":{"parameterUnit":"m.s-1","parameterCategory":2,"la1":30.2991,"la2":30.254,"lo1":-89.0895,"lo2":-89.0444,"dy":0.0017,"dx":0.0017,"nx":28,"ny":28,"refTime":"2025-07-09T03:00:00:Z","depth":"0","parameterNumber":3,"parameterNumberName":"V-component_of_CURRENTS"},"data":[0,0,0,0,0,0,0,0,0,0,0,0,0,0,0,0,0,0,0,0,0,0,0,0,0,0,0,0,0,0,0,0,0,0,0,0,0,0,0,0,0,0,0,0,0,0,0,0,0,0,0,0,0,0,0,0,0,0,0.0275,0.0275,0,0.0296,0.0296,0.0296,0.0292,0.0292,0.0292,0.0291,0.0281,0.0281,0.028,0,0,0,0,0,0,0,0,0,0,0,0,0,0.0227,0.0228,0.0275,0.0275,0.0276,0.0296,0.0296,0.0296,0.0292,0.0292,0.0292,0.0291,0.0281,0.0281,0.028,0,0,0,0,0,0,0,0,0,0,0,0,0,0.0247,0.0228,0.0275,0.0277,0.0278,0.0296,0.0296,0.0296,0.0292,0.0292,0.0291,0.0291,0.0281,0.0281,0.028,0.0288,0,0,0.028,0.028,0,0,0,0,0,0,0,0,0.0246,0.0248,0.0276,0.0277,0.0278,0.0292,0.0275,0.0292,0.0292,0.0285,0.0291,0.0291,0.0283,0.0282,0.0286,0.0288,0.0287,0.028,0.028,0.028,0.028,0,0,0,0,0,0,0,0.0244,0.0247,0.0282,0.0277,0.0278,0.0276,0.0278,0.0279,0.0284,0.0286,0.0286,0.029,0.0282,0.0286,0.0285,0.0287,0.028,0.028,0.028,0.028,0.0295,0.0296,0,0,0,0,0,0,0.0245,0.0246,0.0281,0.0283,0.0262,0.0277,0.0279,0.0287,0.0285,0.0285,0.0291,0.029,0.0286,0.0286,0.0285,0.0301,0.028,0.028,0.028,0.0295,0.0295,0.0296,0,0,0,0,0,0,0.0244,0.0248,0.0281,0.0266,0.027,0.0278,0.0287,0.0287,0.0292,0.0289,0.0288,0.0294,0.0286,0.0285,0.029,0.03,0.028,0.028,0.0294,0.0295,0.0296,0.0328,0,0,0,0,0,0,0.0243,0.0248,0.0252,0.0266,0.0271,0.0294,0.0287,0.0288,0.0296,0.0295,0.0292,0.029,0.0286,0.029,0.029,0.03,0.028,0.0294,0.0295,0.0295,0.0326,0.033,0.0332,0,0,0,0,0,0.0241,0.0251,0.0252,0.0256,0.0277,0.0295,0.0297,0.0301,0.0296,0.0302,0.03,0.0291,0.0295,0.0291,0.029,0.03,0.0293,0.0294,0.0295,0.0325,0.0329,0.0332,0,0,0,0,0,0,0.0231,0.0252,0.0254,0.0269,0.0282,0.0295,0.0302,0.0303,0.0307,0.0305,0.0298,0.0297,0.0305,0.0298,0.0293,0.0306,0.0292,0.0293,0.0315,0.0318,0.0321,0.0327,0.028,0,0,0,0,0,0.0232,0.0246,0.0262,0.0275,0.0282,0.0291,0.0298,0.0302,0.0309,0.031,0.0309,0.0307,0.0309,0.031,0.031,0.0318,0.031,0.0323,0.0327,0.0329,0.0334,0.0332,0.0336,0.0299,0.0299,0.0299,0,0,0.0231,0.0245,0.0252,0.0274,0.0283,0.0302,0.0294,0.0309,0.0324,0.0308,0.0323,0.0318,0.0314,0.0324,0.0327,0.0319,0.0335,0.033,0.0333,0.0336,0.0334,0.0337,0.0341,0.03,0.03,0.0299,0,0,0.0242,0.025,0.0267,0.0281,0.03,0.0309,0.0314,0.0329,0.0334,0.0348,0.0341,0.0342,0.0346,0.0347,0.0347,0.0367,0.0351,0.0365,0.0386,0.0385,0.0388,0.039,0.0381,0.0383,0.0366,0.0366,0.0366,0,0.024,0.0266,0.0274,0.0295,0.0311,0.0314,0.0337,0.0345,0.0359,0.0368,0.0357,0.0367,0.0359,0.0376,0.038,0.0375,0.0368,0.0373,0.0389,0.0391,0.0393,0.0384,0.0385,0.0368,0.0367,0.0367,0.0367,0,0.0267,0.0287,0.0299,0.0329,0.0344,0.0365,0.038,0.0392,0.0395,0.0404,0.0418,0.0408,0.0413,0.041,0.04,0.0414,0.0402,0.0393,0.038,0.0399,0.0387,0.0388,0.037,0.0369,0.0369,0.0369,0,0,0.0267,0.031,0.0315,0.0337,0.0365,0.0384,0.0408,0.0435,0.0455,0.0456,0.0479,0.0475,0.0464,0.0464,0.045,0.0446,0.0449,0.0426,0.0425,0.0419,0.0442,0.0439,0.0439,0.0443,0.0444,0.0444,0.0427,0,0.0288,0.0334,0.0349,0.0394,0.0421,0.0434,0.0459,0.0481,0.0492,0.0512,0.0503,0.0517,0.0487,0.0489,0.048,0.046,0.0453,0.0454,0.0423,0.0422,0.0419,0.0441,0.0467,0.0454,0.0427,0.0427,0.0427,0,0.0312,0.0343,0.0389,0.0437,0.045,0.0473,0.0516,0.054,0.0564,0.0571,0.0576,0.0568,0.0564,0.0535,0.0507,0.0509,0.0478,0.0457,0.0456,0.0444,0.0422,0.0431,0.0456,0.0468,0.0428,0.0428,0.0428,0,0.032,0.0372,0.0411,0.0428,0.0478,0.0501,0.0526,0.0557,0.0586,0.0608,0.0628,0.0616,0.0616,0.0579,0.0529,0.052,0.0496,0.0479,0.0447,0.0445,0.0457,0.0456,0.0492,0.046,0.046,0.046,0.046,0,0.0343,0.0375,0.0419,0.0443,0.0492,0.0518,0.0568,0.059,0.0627,0.0672,0.0656,0.0682,0.0627,0.0605,0.0551,0.0504,0.0511,0.0457,0.0446,0.0468,0.0469,0.047,0.0468,0.046,0.046,0.046,0.046,0,0.035,0.0378,0.0428,0.0481,0.05,0.0535,0.0599,0.0637,0.0664,0.0721,0.0732,0.0734,0.0711,0.0649,0.0593,0.0538,0.05,0.0467,0.0492,0.0485,0.0467,0.0466,0.0479,0.0502,0.0435,0.0435,0.0435,0,0.036,0.0386,0.045,0.0483,0.0509,0.0564,0.0606,0.0651,0.0698,0.0759,0.0792,0.0785,0.0796,0.0707,0.0616,0.0529,0.0513,0.0481,0.047,0.048,0.047,0.0471,0.049,0.0494,0.0494,0.0495,0.0495,0,0.0377,0.0398,0.0439,0.0502,0.0551,0.0612,0.0677,0.0722,0.0785,0.0839,0.0901,0.0914,0.084,0.0777,0.0651,0.058,0.0515,0.0485,0.0496,0.0525,0.0528,0.0541,0.0484,0.0498,0.0498,0.0497,0.0497,0.0497,0.0387,0.0416,0.0466,0.0528,0.0585,0.0658,0.0715,0.0792,0.0878,0.0972,0.0977,0.1015,0.0924,0.0767,0.068,0.0553,0.0549,0.0516,0.0513,0.0513,0.0544,0.0491,0.0492,0.0492,0.0491,0.0491,0.0491,0,0.0399,0.0435,0.0491,0.0567,0.0628,0.0658,0.0762,0.083,0.0941,0.1023,0.1083,0.107,0.0974,0.0841,0.0674,0.0605,0.0582,0.0562,0.0581,0.0598,0.0553,0.0566,0.0584,0.0584,0.0584,0.0584,0.0584,0.0584,0.0407,0.0455,0.0485,0.0585,0.0641,0.073,0.0793,0.0902,0.0986,0.1094,0.1128,0.1145,0.1069,0.0827,0.0692,0.0649,0.065,0.0617,0.0621,0.0596,0.0592,0.0588,0.0601,0.0626,0.0626,0.069,0.0691,0.0691]}],[{"header":{"parameterUnit":"m.s-1","parameterCategory":2,"la1":30.2991,"la2":30.254,"lo1":-89.0895,"lo2":-89.0444,"dy":0.0017,"dx":0.0017,"nx":28,"ny":28,"refTime":"2025-07-09T03:00:00:Z","depth":"2","parameterNumber":2,"parameterNumberName":"U-component_of_CURRENTS"},"data":[0,0,0,0,0,0,0,0,0,0,0,0,0,0,0,0,0,0,0,0,0,0,0,0,0,0,0,0,0,0,0,0,0,0,0,0,0,0,0,0,0,0,0,0,0,0,0,0,0,0,0,0,0,0,0,0,0,0,0.1457,0.1457,0,0.1465,0.1465,0.1465,0.1475,0.1475,0.1476,0.1476,0.1489,0.1489,0.1489,0,0,0,0,0,0,0,0,0,0,0,0,0,0.1468,0.1468,0.1457,0.1457,0.1457,0.1465,0.1465,0.1466,0.1475,0.1475,0.1476,0.1476,0.1489,0.1489,0.1489,0,0,0,0,0,0,0,0,0,0,0,0,0,0.1468,0.1467,0.1457,0.1463,0.1464,0.1465,0.1465,0.1466,0.1475,0.1475,0.1476,0.1476,0.1489,0.1489,0.1489,0.1486,0,0,0.149,0.149,0,0,0,0,0,0,0,0,0.1468,0.1468,0.1462,0.1463,0.1463,0.147,0.1474,0.1473,0.1475,0.1471,0.1476,0.1476,0.1483,0.1483,0.1484,0.1486,0.1487,0.149,0.149,0.149,0.149,0,0,0,0,0,0,0,0.1468,0.1468,0.146,0.1462,0.1463,0.1472,0.1472,0.1474,0.1475,0.1471,0.1472,0.1473,0.1483,0.1484,0.1485,0.1487,0.149,0.149,0.149,0.149,0.1525,0.1526,0,0,0,0,0,0,0.1466,0.1467,0.146,0.146,0.1467,0.1472,0.1472,0.1467,0.1475,0.1476,0.1473,0.1473,0.1483,0.1484,0.1485,0.1513,0.149,0.149,0.1491,0.1525,0.1526,0.1526,0,0,0,0,0,0,0.1466,0.1465,0.1459,0.1465,0.1465,0.1471,0.1466,0.1467,0.1475,0.1476,0.1478,0.148,0.1483,0.1485,0.1495,0.1512,0.1491,0.1491,0.1524,0.1525,0.1526,0.1548,0,0,0,0,0,0,0.1466,0.1465,0.1465,0.1464,0.1464,0.1465,0.1466,0.1467,0.1475,0.1476,0.1483,0.1484,0.1484,0.1495,0.1495,0.1512,0.1491,0.1523,0.1524,0.1526,0.1546,0.155,0.1553,0,0,0,0,0,0.1467,0.1466,0.1465,0.1465,0.1463,0.1466,0.1467,0.1472,0.1475,0.148,0.1486,0.1484,0.1505,0.1495,0.1496,0.1513,0.1522,0.1524,0.1526,0.1545,0.1549,0.1552,0,0,0,0,0,0,0.1472,0.1467,0.1466,0.1464,0.1467,0.1468,0.1473,0.1475,0.1484,0.1488,0.1488,0.149,0.1511,0.1506,0.1496,0.1528,0.1515,0.1517,0.153,0.1534,0.1537,0.1526,0.1491,0,0,0,0,0,0.1472,0.147,0.1468,0.1467,0.1469,0.1472,0.1476,0.148,0.1485,0.1489,0.1493,0.1502,0.1518,0.152,0.1532,0.154,0.1541,0.1554,0.1557,0.156,0.1552,0.1582,0.1587,0.1532,0.1532,0.1532,0,0,0.1474,0.1471,0.147,0.1469,0.1472,0.1473,0.1475,0.1483,0.1487,0.1489,0.1499,0.1516,0.1525,0.1543,0.1551,0.1539,0.1575,0.1562,0.1564,0.1555,0.1585,0.159,0.1595,0.1533,0.1533,0.1533,0,0,0.1474,0.1474,0.1472,0.1475,0.1481,0.1482,0.1485,0.149,0.1497,0.1509,0.1519,0.1541,0.1553,0.1566,0.1573,0.1598,0.1597,0.1607,0.1606,0.1636,0.1641,0.1645,0.1646,0.1651,0.1601,0.1601,0.1601,0,0.1478,0.1471,0.1474,0.1475,0.1478,0.1485,0.1487,0.1494,0.1503,0.1513,0.1516,0.1555,0.1564,0.159,0.16,0.1606,0.1612,0.1591,0.164,0.1644,0.1648,0.1649,0.1653,0.1602,0.1602,0.1602,0.1602,0,0.1474,0.1474,0.1476,0.1475,0.1481,0.1485,0.1493,0.1505,0.1516,0.1525,0.1559,0.1576,0.1597,0.1611,0.1611,0.1646,0.1638,0.1647,0.1629,0.1655,0.1654,0.1658,0.1604,0.1604,0.1603,0.1603,0,0,0.1466,0.1471,0.1472,0.1472,0.1482,0.1484,0.1499,0.1513,0.1525,0.1547,0.1569,0.1601,0.1616,0.1625,0.1637,0.1656,0.169,0.1659,0.166,0.1657,0.1739,0.1642,0.1637,0.1713,0.1714,0.1715,0.1725,0,0.1462,0.146,0.1467,0.1469,0.1468,0.1485,0.1496,0.1515,0.1534,0.1557,0.1589,0.1617,0.1619,0.1639,0.1659,0.169,0.1703,0.1685,0.1717,0.1717,0.1625,0.1639,0.15,0.1489,0.1729,0.1729,0.173,0,0.1451,0.1452,0.1452,0.1463,0.1466,0.1473,0.1496,0.1509,0.1546,0.1567,0.16,0.1624,0.166,0.1663,0.171,0.1701,0.1716,0.1733,0.1734,0.1636,0.1627,0.1504,0.1487,0.1736,0.1736,0.1735,0.1735,0,0.1433,0.1441,0.144,0.1443,0.1458,0.147,0.1483,0.1515,0.1532,0.1577,0.1601,0.1641,0.1669,0.1703,0.1725,0.1729,0.177,0.1783,0.1706,0.1699,0.1579,0.1559,0.1815,0.1815,0.1815,0.1815,0.1814,0,0.1417,0.1417,0.1433,0.1432,0.144,0.146,0.1477,0.15,0.154,0.156,0.1605,0.1627,0.1684,0.171,0.1731,0.1715,0.1775,0.1697,0.1696,0.158,0.1561,0.1776,0.1772,0.1815,0.1815,0.1815,0.1815,0,0.1394,0.1403,0.1404,0.1422,0.143,0.1438,0.1471,0.1484,0.1527,0.1558,0.1577,0.1628,0.1652,0.1684,0.1732,0.1707,0.1716,0.1696,0.1536,0.1514,0.1624,0.162,0.1613,0.1609,0.1606,0.1604,0.1602,0,0.1378,0.1376,0.1392,0.1395,0.1404,0.1421,0.1432,0.1474,0.1489,0.1549,0.156,0.1598,0.16,0.1611,0.1577,0.1566,0.1648,0.1428,0.1404,0.1604,0.1604,0.1605,0.1605,0.126,0.1255,0.1251,0.1248,0,0.1352,0.1362,0.1364,0.1367,0.1377,0.1384,0.1405,0.1414,0.1461,0.1479,0.1499,0.1508,0.1498,0.1402,0.1369,0.1355,0.1415,0.1347,0.1616,0.1321,0.1269,0.127,0.1282,0.1215,0.1218,0.122,0.1222,0.1224,0.1335,0.133,0.1334,0.1331,0.134,0.1335,0.1319,0.1338,0.134,0.1339,0.1395,0.1345,0.1328,0.1191,0.1137,0.1084,0.1196,0.1147,0.116,0.1177,0.1124,0.1068,0.0965,0.0967,0.0969,0.097,0.0971,0,0.1302,0.1298,0.1295,0.1281,0.1262,0.129,0.1285,0.1247,0.1212,0.1218,0.1206,0.1066,0.097,0.0961,0.0811,0.0783,0.0801,0.0759,0.0779,0.0811,0.0841,0.0772,0.0519,0.0518,0.0517,0.0516,0,0,0.1285,0.1262,0.1251,0.1199,0.1193,0.1145,0.1128,0.1079,0.1053,0.0981,0.0925,0.0961,0.0945,0.074,0.0687,0.0579,0.0705,0.0553,0.0914,0.0972,0.1001,0.1056,0.0985,0,0,0,0,0]},{"header":{"parameterUnit":"m.s-1","parameterCategory":2,"la1":30.2991,"la2":30.254,"lo1":-89.0895,"lo2":-89.0444,"dy":0.0017,"dx":0.0017,"nx":28,"ny":28,"refTime":"2025-07-09T03:00:00:Z","depth":"2","parameterNumber":3,"parameterNumberName":"V-component_of_CURRENTS"},"data":[0,0,0,0,0,0,0,0,0,0,0,0,0,0,0,0,0,0,0,0,0,0,0,0,0,0,0,0,0,0,0,0,0,0,0,0,0,0,0,0,0,0,0,0,0,0,0,0,0,0,0,0,0,0,0,0,0,0,0.0197,0.0197,0,0.0212,0.0212,0.0212,0.0208,0.0208,0.0208,0.0207,0.0195,0.0195,0.0195,0,0,0,0,0,0,0,0,0,0,0,0,0,0.0155,0.0155,0.0197,0.0197,0.0197,0.0212,0.0212,0.0212,0.0208,0.0208,0.0208,0.0207,0.0195,0.0195,0.0195,0,0,0,0,0,0,0,0,0,0,0,0,0,0.0171,0.0156,0.0197,0.0198,0.0198,0.0212,0.0212,0.0212,0.0208,0.0208,0.0207,0.0207,0.0195,0.0195,0.0195,0.02,0,0,0.0194,0.0194,0,0,0,0,0,0,0,0,0.017,0.0172,0.0197,0.0198,0.0198,0.0209,0.0193,0.0207,0.0208,0.0203,0.0207,0.0207,0.0198,0.0198,0.02,0.0199,0.0199,0.0194,0.0194,0.0194,0.0194,0,0,0,0,0,0,0,0.0169,0.0171,0.0202,0.0198,0.0198,0.0195,0.0196,0.0196,0.0201,0.0204,0.0204,0.0207,0.0198,0.02,0.02,0.0198,0.0194,0.0194,0.0194,0.0194,0.0201,0.0202,0,0,0,0,0,0,0.017,0.0171,0.0201,0.0202,0.0184,0.0196,0.0198,0.0205,0.0201,0.0201,0.0207,0.0207,0.0201,0.02,0.0199,0.0213,0.0194,0.0194,0.0194,0.0201,0.0201,0.0202,0,0,0,0,0,0,0.0169,0.0173,0.02,0.0187,0.0191,0.0197,0.0205,0.0205,0.0209,0.0205,0.0204,0.0211,0.02,0.0199,0.0202,0.0212,0.0194,0.0194,0.0201,0.0201,0.0202,0.0234,0,0,0,0,0,0,0.0168,0.0172,0.0177,0.0188,0.0191,0.0212,0.0205,0.0206,0.0212,0.0212,0.0207,0.0206,0.02,0.0202,0.0202,0.0211,0.0193,0.02,0.0201,0.0201,0.0233,0.0236,0.0238,0,0,0,0,0,0.0166,0.0176,0.0177,0.0181,0.0198,0.0212,0.0214,0.0216,0.0213,0.0217,0.0214,0.0206,0.0206,0.0203,0.0202,0.0211,0.02,0.0201,0.0201,0.0231,0.0235,0.0238,0,0,0,0,0,0,0.0159,0.0177,0.0178,0.0192,0.0203,0.0212,0.0218,0.0219,0.0221,0.022,0.0212,0.0211,0.0217,0.0209,0.0205,0.0214,0.0201,0.0201,0.0224,0.0227,0.023,0.0238,0.0193,0,0,0,0,0,0.016,0.0173,0.0187,0.0198,0.0204,0.0211,0.0216,0.022,0.0224,0.0225,0.0222,0.0219,0.0219,0.0219,0.0217,0.0223,0.0215,0.0228,0.023,0.0233,0.0238,0.0235,0.0238,0.0204,0.0204,0.0204,0,0,0.016,0.0172,0.0179,0.0197,0.0205,0.0221,0.0213,0.0226,0.0239,0.0223,0.0236,0.0229,0.0223,0.0231,0.0232,0.0225,0.0238,0.0234,0.0236,0.024,0.0236,0.024,0.0242,0.0205,0.0205,0.0204,0,0,0.017,0.0178,0.0193,0.0205,0.0222,0.0229,0.0233,0.0245,0.0249,0.0261,0.0253,0.0252,0.0254,0.0252,0.0251,0.0268,0.0254,0.0265,0.0286,0.0283,0.0286,0.0288,0.0281,0.0283,0.0266,0.0266,0.0266,0,0.0169,0.0193,0.0199,0.0218,0.0232,0.0234,0.0254,0.0261,0.0271,0.0279,0.0269,0.0275,0.0266,0.0278,0.0282,0.0275,0.0269,0.0275,0.0287,0.0289,0.0291,0.0284,0.0285,0.0267,0.0267,0.0267,0.0267,0,0.0193,0.0212,0.0223,0.025,0.0263,0.0281,0.0294,0.0305,0.0308,0.0314,0.0326,0.0314,0.0316,0.0312,0.0302,0.0313,0.0302,0.0292,0.028,0.0297,0.0287,0.0288,0.027,0.0269,0.0269,0.0268,0,0,0.0193,0.0232,0.0237,0.0258,0.0283,0.03,0.0322,0.0345,0.0363,0.0363,0.0384,0.0377,0.0366,0.0364,0.0349,0.0344,0.0348,0.0325,0.0324,0.0321,0.0339,0.0335,0.0335,0.0339,0.034,0.034,0.0327,0,0.0212,0.0255,0.0269,0.031,0.0335,0.0346,0.037,0.0388,0.0397,0.0416,0.0405,0.0416,0.0387,0.0389,0.0379,0.0359,0.0352,0.0352,0.0321,0.032,0.0317,0.0337,0.0336,0.0324,0.0327,0.0327,0.0327,0,0.0234,0.0262,0.0305,0.035,0.0362,0.0384,0.0423,0.0445,0.0465,0.0472,0.0475,0.0465,0.0461,0.0433,0.0405,0.0406,0.0376,0.0355,0.0354,0.0341,0.0318,0.0308,0.0325,0.0329,0.0328,0.0328,0.0328,0,0.0241,0.0289,0.0326,0.0341,0.0388,0.041,0.0434,0.0462,0.0489,0.0508,0.0526,0.0512,0.0512,0.0476,0.0427,0.0418,0.0394,0.0375,0.0343,0.0342,0.0331,0.0329,0.0357,0.0357,0.0357,0.0357,0.0357,0,0.0262,0.0292,0.0333,0.0355,0.0403,0.0427,0.0475,0.0495,0.053,0.0571,0.0554,0.0577,0.0523,0.0501,0.0448,0.0401,0.0408,0.0354,0.0343,0.0342,0.0341,0.0335,0.0332,0.0356,0.0356,0.0356,0.0356,0,0.0268,0.0294,0.034,0.0391,0.041,0.0444,0.0507,0.0543,0.0568,0.0621,0.0632,0.0629,0.0603,0.0544,0.0487,0.0434,0.0386,0.0364,0.0365,0.0355,0.0329,0.0329,0.0333,0.0333,0.0333,0.0332,0.0332,0,0.0276,0.03,0.0362,0.0394,0.042,0.0473,0.0515,0.0559,0.0603,0.0657,0.0688,0.0677,0.0679,0.0591,0.0501,0.0415,0.0394,0.0351,0.0335,0.0341,0.0329,0.0329,0.0328,0.033,0.0329,0.0329,0.0329,0,0.0292,0.0312,0.0351,0.0414,0.0463,0.0523,0.0587,0.063,0.0689,0.0733,0.0782,0.0785,0.0709,0.0627,0.0507,0.044,0.0365,0.0347,0.0358,0.0338,0.0337,0.0326,0.0326,0.0329,0.0329,0.0329,0.0329,0.0329,0.0303,0.033,0.038,0.0441,0.0498,0.057,0.0625,0.0694,0.0769,0.0841,0.0842,0.0842,0.0747,0.0595,0.0491,0.037,0.0377,0.0323,0.0323,0.0324,0.0328,0.0327,0.0317,0.0317,0.0317,0.0317,0.0317,0,0.0317,0.0352,0.0406,0.0481,0.0542,0.0572,0.0672,0.0729,0.0819,0.087,0.0907,0.0807,0.0721,0.0602,0.0437,0.0343,0.0324,0.0295,0.0298,0.0299,0.03,0.0303,0.0286,0.0286,0.0285,0.0285,0,0,0.0328,0.0374,0.0403,0.0501,0.0556,0.0643,0.0702,0.0786,0.0843,0.0893,0.089,0.0884,0.075,0.0623,0.0493,0.0395,0.0364,0.0363,0.0397,0.0418,0.042,0.0325,0.0332,0,0,0,0,0]}],[{"header":{"parameterUnit":"m.s-1","parameterCategory":2,"la1":30.2991,"la2":30.254,"lo1":-89.0895,"lo2":-89.0444,"dy":0.0017,"dx":0.0017,"nx":28,"ny":28,"refTime":"2025-07-09T03:00:00:Z","depth":"4","parameterNumber":2,"parameterNumberName":"U-component_of_CURRENTS"},"data":[0,0,0,0,0,0,0,0,0,0,0,0,0,0,0,0,0,0,0,0,0,0,0,0,0,0,0,0,0,0,0,0,0,0,0,0,0,0,0,0,0,0,0,0,0,0,0,0,0,0,0,0,0,0,0,0,0,0,0.072,0.072,0,0.0718,0.0718,0.0718,0.0735,0.0735,0.0736,0.0737,0.0762,0.0762,0.0762,0,0,0,0,0,0,0,0,0,0,0,0,0,0.0745,0.0744,0.072,0.072,0.072,0.0718,0.0718,0.0718,0.0735,0.0736,0.0736,0.0737,0.0762,0.0762,0.0762,0,0,0,0,0,0,0,0,0,0,0,0,0,0.0736,0.0744,0.072,0.0729,0.073,0.0718,0.0718,0.0718,0.0735,0.0736,0.0736,0.0737,0.0762,0.0762,0.0762,0.0746,0,0,0.0763,0.0763,0,0,0,0,0,0,0,0,0.0737,0.0735,0.0728,0.0729,0.073,0.0729,0.0736,0.0729,0.0734,0.0732,0.0737,0.0738,0.0754,0.0755,0.075,0.0747,0.0748,0.0763,0.0763,0.0763,0.0763,0,0,0,0,0,0,0,0.0737,0.0735,0.0718,0.0728,0.0729,0.0736,0.0736,0.0735,0.0737,0.0732,0.0733,0.0735,0.0754,0.075,0.0751,0.0748,0.0763,0.0763,0.0763,0.0763,0.0812,0.0813,0,0,0,0,0,0,0.0738,0.0736,0.0718,0.0718,0.0737,0.0735,0.0734,0.0727,0.0737,0.0739,0.0734,0.0736,0.0749,0.0751,0.0752,0.0797,0.0763,0.0763,0.0763,0.081,0.0812,0.0813,0,0,0,0,0,0,0.0739,0.0736,0.0718,0.0729,0.0727,0.0734,0.0725,0.0727,0.0744,0.0738,0.0741,0.0753,0.075,0.0752,0.0774,0.0796,0.0763,0.0763,0.0809,0.0811,0.0812,0.0848,0,0,0,0,0,0,0.0739,0.0736,0.0742,0.0728,0.0726,0.0726,0.0725,0.0726,0.0743,0.0746,0.0755,0.0757,0.0751,0.0774,0.0775,0.0796,0.0764,0.0807,0.081,0.0812,0.0845,0.085,0.0855,0,0,0,0,0,0.074,0.0739,0.0742,0.0741,0.073,0.0727,0.0727,0.0734,0.0744,0.0753,0.0765,0.0758,0.0789,0.0775,0.0775,0.0797,0.0806,0.0809,0.0812,0.0843,0.0849,0.0855,0,0,0,0,0,0,0.0756,0.074,0.0744,0.074,0.0743,0.0731,0.0741,0.0745,0.076,0.0772,0.0767,0.077,0.0799,0.0795,0.078,0.0819,0.0799,0.0801,0.0822,0.0828,0.0833,0.0835,0.0764,0,0,0,0,0,0.0761,0.0756,0.0748,0.0749,0.0751,0.0751,0.0756,0.0761,0.0767,0.0775,0.0783,0.0795,0.0805,0.0815,0.0821,0.0839,0.0835,0.0856,0.0861,0.0865,0.0868,0.0883,0.0889,0.0822,0.0822,0.0822,0,0,0.0768,0.076,0.0759,0.0753,0.0756,0.0758,0.0757,0.077,0.0781,0.0775,0.0803,0.0812,0.0814,0.0837,0.085,0.0839,0.0883,0.0868,0.0872,0.0873,0.0886,0.0893,0.0898,0.0823,0.0823,0.0823,0,0,0.0772,0.0774,0.0771,0.0774,0.0782,0.0781,0.079,0.0794,0.0809,0.0833,0.0834,0.0858,0.0874,0.0878,0.0881,0.0918,0.0909,0.0926,0.0953,0.0968,0.0973,0.0978,0.0982,0.0987,0.093,0.093,0.093,0,0.0788,0.0775,0.0773,0.0775,0.0782,0.0793,0.08,0.0811,0.0826,0.0845,0.0853,0.0889,0.0892,0.0914,0.093,0.0928,0.0933,0.0928,0.0973,0.0978,0.0982,0.0986,0.0991,0.0932,0.0931,0.0931,0.0931,0,0.078,0.0784,0.0786,0.0788,0.0798,0.0808,0.0821,0.0846,0.0871,0.0884,0.0926,0.0934,0.0957,0.0964,0.0959,0.0993,0.0985,0.0976,0.0955,0.0991,0.0993,0.0997,0.0935,0.0934,0.0933,0.0933,0,0,0.0783,0.078,0.0785,0.079,0.0809,0.0813,0.0845,0.087,0.0897,0.0931,0.0965,0.0991,0.1008,0.1013,0.1013,0.1027,0.1061,0.102,0.102,0.102,0.1092,0.0999,0.0995,0.1063,0.1064,0.1064,0.1081,0,0.0783,0.078,0.0785,0.08,0.0801,0.083,0.0855,0.0888,0.0923,0.0961,0.099,0.1022,0.1021,0.1041,0.1057,0.106,0.1075,0.1057,0.1062,0.1062,0.0971,0.0998,0.1068,0.1085,0.1085,0.1086,0.1087,0,0.0773,0.0772,0.0779,0.08,0.0807,0.0827,0.0876,0.0901,0.0958,0.099,0.1036,0.1058,0.1094,0.1086,0.1115,0.1107,0.1108,0.1105,0.1106,0.1009,0.0977,0.1042,0.1094,0.1094,0.1093,0.1093,0.1092,0,0.0758,0.0771,0.0777,0.0784,0.0809,0.0837,0.0865,0.0919,0.0947,0.1015,0.1048,0.1092,0.1121,0.1136,0.1143,0.1138,0.1165,0.1152,0.1067,0.1061,0.1123,0.1118,0.1172,0.1172,0.1172,0.1172,0.1172,0,0.0741,0.0751,0.0774,0.0776,0.0802,0.0833,0.0875,0.0914,0.0971,0.1004,0.1065,0.1089,0.1138,0.1159,0.1158,0.1123,0.118,0.1073,0.1059,0.1138,0.1134,0.1126,0.1121,0.1172,0.1172,0.1172,0.1172,0,0.0718,0.0731,0.074,0.0774,0.0792,0.0815,0.0874,0.0897,0.0965,0.101,0.1037,0.1102,0.1125,0.1153,0.1172,0.1129,0.1112,0.1086,0.1171,0.1161,0.0995,0.0991,0.0989,0.0986,0.0983,0.0981,0.0979,0,0.0701,0.07,0.0734,0.0744,0.0764,0.0803,0.0826,0.0891,0.0914,0.1001,0.1012,0.1069,0.1101,0.1057,0.1089,0.1075,0.1059,0.1042,0.1014,0.099,0.0977,0.0978,0.0977,0.0975,0.0974,0.0974,0.0973,0,0.067,0.0689,0.0695,0.0711,0.0736,0.0751,0.0792,0.0803,0.0873,0.0945,0.0963,0.0974,0.0992,0.0998,0.0997,0.0985,0.1047,0.1013,0.1019,0.0993,0.0973,0.0963,0.0966,0.0964,0.0965,0.0966,0.0966,0,0.0655,0.0648,0.0658,0.0668,0.0694,0.0688,0.0714,0.0734,0.0765,0.0864,0.0865,0.0924,0.0984,0.0951,0.0949,0.093,0.0907,0.0866,0.0878,0.0889,0.0845,0.0804,0.0731,0,0,0,0,0,0.0634,0.0611,0.0612,0.0607,0.0628,0.0643,0.0682,0.0709,0.0783,0.0769,0.0815,0.083,0.0829,0.0855,0.0812,0.0889,0.0905,0.0832,0.0863,0.0913,0.0923,0.0879,0,0,0,0,0,0,0.0614,0.061,0.059,0.0556,0.0548,0.0557,0.0581,0.0626,0.062,0.0705,0.0709,0.077,0.0782,0.085,0.0798,0.0803,0.0798,0.0869,0.0865,0.0907,0.0916,0.0925,0.0883,0,0,0,0,0]},{"header":{"parameterUnit":"m.s-1","parameterCategory":2,"la1":30.2991,"la2":30.254,"lo1":-89.0895,"lo2":-89.0444,"dy":0.0017,"dx":0.0017,"nx":28,"ny":28,"refTime":"2025-07-09T03:00:00:Z","depth":"4","parameterNumber":3,"parameterNumberName":"V-component_of_CURRENTS"},"data":[0,0,0,0,0,0,0,0,0,0,0,0,0,0,0,0,0,0,0,0,0,0,0,0,0,0,0,0,0,0,0,0,0,0,0,0,0,0,0,0,0,0,0,0,0,0,0,0,0,0,0,0,0,0,0,0,0,0,0.014,0.0141,0,0.0149,0.0149,0.0149,0.0149,0.0149,0.0148,0.0148,0.0141,0.014,0.014,0,0,0,0,0,0,0,0,0,0,0,0,0,0.0111,0.0112,0.014,0.0141,0.0141,0.0149,0.0149,0.0149,0.0149,0.0149,0.0148,0.0148,0.0141,0.014,0.014,0,0,0,0,0,0,0,0,0,0,0,0,0,0.0122,0.0112,0.014,0.0142,0.0142,0.0149,0.0149,0.0149,0.0149,0.0149,0.0148,0.0148,0.0141,0.014,0.014,0.014,0,0,0.0139,0.0139,0,0,0,0,0,0,0,0,0.0121,0.0123,0.0142,0.0142,0.0142,0.0148,0.0136,0.0145,0.0149,0.0145,0.0148,0.0148,0.0142,0.0142,0.0143,0.0139,0.0139,0.0139,0.0139,0.0139,0.0139,0,0,0,0,0,0,0,0.012,0.0122,0.0143,0.0142,0.0142,0.0138,0.014,0.0137,0.0143,0.0146,0.0146,0.0148,0.0142,0.0143,0.0142,0.0139,0.0139,0.0139,0.0139,0.0139,0.0138,0.0138,0,0,0,0,0,0,0.0122,0.0122,0.0143,0.0143,0.0132,0.0139,0.014,0.0146,0.0144,0.0144,0.0148,0.0148,0.0143,0.0143,0.0142,0.0152,0.0139,0.0139,0.0139,0.0138,0.0138,0.0138,0,0,0,0,0,0,0.0121,0.0124,0.0142,0.0133,0.0135,0.014,0.0146,0.0146,0.015,0.0146,0.0145,0.0152,0.0143,0.0142,0.0144,0.0152,0.0139,0.0139,0.0138,0.0138,0.0138,0.0166,0,0,0,0,0,0,0.012,0.0123,0.0128,0.0133,0.0136,0.015,0.0146,0.0146,0.0152,0.0152,0.0149,0.0148,0.0143,0.0144,0.0144,0.0151,0.0138,0.0138,0.0138,0.0138,0.0165,0.0167,0.0169,0,0,0,0,0,0.0119,0.0127,0.0128,0.0131,0.0142,0.015,0.0151,0.0153,0.0152,0.0156,0.0154,0.0148,0.0145,0.0144,0.0144,0.0151,0.0137,0.0138,0.0138,0.0164,0.0167,0.0169,0,0,0,0,0,0,0.0116,0.0128,0.0129,0.014,0.0146,0.015,0.0155,0.0156,0.0158,0.0158,0.0152,0.0151,0.0154,0.0147,0.0147,0.015,0.014,0.014,0.016,0.0162,0.0164,0.0173,0.0138,0,0,0,0,0,0.0117,0.0127,0.0135,0.0144,0.0148,0.0152,0.0156,0.0158,0.016,0.0161,0.016,0.0156,0.0154,0.0154,0.0151,0.0155,0.0148,0.0158,0.016,0.0161,0.0167,0.0161,0.0164,0.0139,0.0139,0.0139,0,0,0.0118,0.0127,0.0131,0.0144,0.0149,0.016,0.0154,0.0163,0.0173,0.016,0.0171,0.0164,0.0156,0.0161,0.0162,0.0157,0.0165,0.0162,0.0164,0.0168,0.0162,0.0164,0.0166,0.0139,0.0139,0.0139,0,0,0.0126,0.0133,0.0144,0.0152,0.0163,0.0167,0.0171,0.0178,0.0182,0.019,0.0183,0.018,0.018,0.0176,0.0174,0.0185,0.0175,0.0183,0.0202,0.0196,0.0198,0.02,0.0196,0.0197,0.0184,0.0184,0.0184,0,0.0126,0.0143,0.0147,0.0161,0.0171,0.0172,0.0186,0.0191,0.0198,0.0204,0.0198,0.0198,0.0188,0.0195,0.0197,0.019,0.0186,0.0194,0.02,0.0201,0.0203,0.0198,0.0199,0.0186,0.0186,0.0186,0.0185,0,0.0142,0.0157,0.0165,0.0185,0.0194,0.0207,0.0216,0.0225,0.0228,0.0232,0.024,0.0227,0.0228,0.0222,0.0214,0.022,0.0214,0.0203,0.0195,0.0207,0.0201,0.0202,0.0188,0.0187,0.0187,0.0187,0,0,0.0141,0.0171,0.0175,0.0191,0.0209,0.0221,0.0238,0.0255,0.027,0.0269,0.0286,0.0276,0.0268,0.0265,0.0251,0.0246,0.0248,0.0231,0.023,0.0231,0.0239,0.0227,0.0227,0.0239,0.024,0.024,0.0232,0,0.0154,0.0185,0.0197,0.0227,0.0245,0.0256,0.0274,0.0288,0.0296,0.031,0.03,0.0308,0.0285,0.0287,0.0277,0.0257,0.025,0.0251,0.0225,0.0224,0.0215,0.0227,0.024,0.0232,0.0232,0.0232,0.0232,0,0.0168,0.0189,0.0221,0.0257,0.0266,0.0284,0.0316,0.0333,0.035,0.0355,0.0358,0.035,0.0345,0.0322,0.0296,0.0298,0.0273,0.0254,0.0253,0.0234,0.0213,0.0217,0.0233,0.0233,0.0233,0.0233,0.0233,0,0.017,0.0208,0.0235,0.0247,0.0284,0.0304,0.0325,0.0348,0.0371,0.0387,0.0403,0.0389,0.039,0.0358,0.0316,0.0309,0.0286,0.0268,0.0234,0.0232,0.0233,0.0231,0.025,0.025,0.025,0.025,0.025,0,0.0182,0.0205,0.0241,0.0258,0.0297,0.0318,0.0359,0.0377,0.0406,0.0438,0.0428,0.0442,0.04,0.038,0.0334,0.0289,0.0298,0.0243,0.0231,0.0245,0.0244,0.0233,0.0232,0.025,0.025,0.025,0.025,0,0.0182,0.0204,0.024,0.0283,0.0301,0.033,0.0387,0.0417,0.0441,0.0482,0.0492,0.0488,0.0462,0.0415,0.0364,0.0316,0.0271,0.025,0.0275,0.0265,0.0216,0.0216,0.0214,0.0213,0.0213,0.0213,0.0212,0,0.0185,0.0203,0.0256,0.0284,0.0307,0.0355,0.0392,0.0432,0.0466,0.0508,0.0529,0.052,0.0507,0.0429,0.0372,0.0291,0.0271,0.0244,0.0223,0.0224,0.0214,0.0214,0.0214,0.0212,0.0212,0.0212,0.0212,0,0.0193,0.0211,0.0242,0.0296,0.0341,0.0392,0.0447,0.0474,0.0523,0.0543,0.0558,0.0525,0.0496,0.0428,0.0369,0.0307,0.026,0.024,0.024,0.0219,0.0222,0.0212,0.0212,0.021,0.021,0.0211,0.0211,0,0.0199,0.0219,0.0261,0.031,0.0365,0.0419,0.0447,0.0493,0.0528,0.057,0.0571,0.0542,0.0526,0.0437,0.0382,0.0322,0.0297,0.0262,0.026,0.0261,0.0271,0.028,0.0283,0,0,0,0,0,0.0206,0.0232,0.0275,0.0332,0.0384,0.0419,0.0482,0.0509,0.0552,0.0563,0.0569,0.0541,0.0465,0.0434,0.0372,0.0366,0.0284,0.0289,0.0241,0.0203,0.0205,0.0206,0,0,0,0,0,0,0.0213,0.025,0.0273,0.0341,0.038,0.0443,0.0485,0.0515,0.0522,0.055,0.0511,0.0506,0.0433,0.0496,0.0363,0.0348,0.0304,0.026,0.0258,0.0202,0.0204,0.0205,0.0206,0,0,0,0,0]}]]